This is the latest recevied weather packets stored in our database for station/object SQ3RAX-13. If no packets are shown the sender has not sent any weather packets the latest 10 day(s).
| Time | Temp. | Humidity | Pressure | Rain* | Wind** | Luminosity | Snow |
|---|---|---|---|---|---|---|---|
| 1777356300 | 6.11° C | 57% | 1026 hPa | 0 mm | - | - | - |
| 1777355700 | 6.11° C | 57% | 1026 hPa | 0 mm | - | - | - |
| 1777355100 | 5.56° C | 57% | 1026 hPa | 0 mm | - | - | - |
| 1777354500 | 4.44° C | 62% | 1026 hPa | 0 mm | - | - | - |
| 1777353900 | 4.44° C | 62% | 1026 hPa | 0 mm | - | - | - |
| 1777353300 | 3.89° C | 65% | 1026 hPa | 0 mm | - | - | - |
| 1777352700 | 3.89° C | 63% | 1026 hPa | 0 mm | - | - | - |
| 1777352100 | 3.89° C | 63% | 1026 hPa | 0 mm | - | - | - |
| 1777351500 | 3.33° C | 64% | 1026 hPa | 0 mm | - | - | - |
| 1777350900 | 2.22° C | 68% | 1025 hPa | 0 mm | - | - | - |
| 1777350300 | 2.22° C | 68% | 1025 hPa | 0 mm | - | - | - |
| 1777349700 | 1.67° C | 69% | 1025 hPa | 0 mm | - | - | - |
| 1777349100 | 1.67° C | 66% | 1026 hPa | 0 mm | - | - | - |
| 1777348500 | 1.67° C | 66% | 1026 hPa | 0 mm | - | - | - |
| 1777347900 | 1.67° C | 66% | 1026 hPa | 0 mm | - | - | - |
| 1777347300 | 1.67° C | 67% | 1025 hPa | 0 mm | - | - | - |
| 1777346700 | 1.67° C | 67% | 1025 hPa | 0 mm | - | - | - |
| 1777346100 | 2.22° C | 67% | 1025 hPa | 0 mm | - | - | - |
| 1777345500 | 1.67° C | 64% | 1025 hPa | 0 mm | - | - | - |
| 1777344900 | 1.67° C | 64% | 1025 hPa | 0 mm | - | - | - |
| 1777344300 | 1.67° C | 64% | 1025 hPa | 0 mm | - | - | - |
| 1777343700 | 1.67° C | 63% | 1025 hPa | 0 mm | - | - | - |
| 1777343100 | 2.22° C | 65% | 1025 hPa | 0 mm | - | - | - |
| 1777342500 | 2.78° C | 63% | 1025 hPa | 0 mm | - | - | - |
| 1777341900 | 2.22° C | 60% | 1025 hPa | 0 mm | - | - | - |
* Rain latest hour (hover to see other rain measurements)
** Current wind speed in m/s (hover to see current wind gust speed)